Terminal Aerodrome Forecast
Issued by NWS Wichita, KS

Home | Current Version | Previous Version | Graphics & Text | Print | Product List | Glossary On
Versions: 1 2 3 4 5 6 7 8 9 10 11 12 13 14 15
000
FTUS43 KICT 250520
TAFICT
TAF
KICT 250520Z 2506/2606 32005KT P6SM FEW080
     FM251500 26005KT P6SM FEW100
     FM251800 22011G20KT P6SM SCT150
     FM260100 18012KT P6SM BKN080=

USA.gov is the U.S. government's official web portal to all federal, state and local government web resources and services.